Location: Newark
(42.7133°N, 87.7910°W)
Time: 00:45:32
(UTC+00:00)

A-11 Canister half - All Passes

Search period start: 21 September 2019 00:00
Search period end: 01 October 2019 00:00
Orbit: 1513 x 1686 km, 47.2° (Epoch: 18 September)

Date Brightness Start Highest point End Pass type
(mag) Time Alt. Az. Time Alt. Az. Time Alt. Az.
21 Sep - 12:39:48 10° SE 12:40:47 10° ESE 12:41:45 10° ESE daylight
21 Sep - 14:35:07 10° SSW 14:43:49 44° SE 14:52:23 10° ENE daylight
21 Sep - 16:38:54 10° WSW 16:48:14 84° NNW 16:57:32 10° ENE daylight
21 Sep - 18:44:32 10° W 18:53:45 67° N 19:03:03 10° E daylight
21 Sep - 20:49:48 10° WNW 20:59:05 83° SSW 21:08:32 10° ESE daylight
21 Sep - 22:55:12 10° WNW 23:03:09 33° SW 23:11:17 10° SSE daylight
22 Sep - 14:12:21 10° SSW 14:20:58 42° SE 14:29:25 10° ENE daylight
22 Sep - 16:15:57 10° WSW 16:25:19 86° NNW 16:34:37 10° ENE daylight
22 Sep - 18:21:34 10° W 18:30:48 67° N 18:40:04 10° E daylight
22 Sep - 20:26:53 10° WNW 20:36:10 86° SSW 20:45:37 10° ESE daylight
22 Sep - 22:32:13 10° WNW 22:40:18 35° SW 22:48:35 10° SSE daylight
23 Sep - 13:49:36 10° SSW 13:58:07 40° SE 14:06:27 10° ENE daylight
23 Sep - 15:53:00 10° WSW 16:02:24 89° NNW 16:11:41 10° ENE daylight
23 Sep - 17:58:37 10° W 18:07:50 67° N 18:17:06 10° E daylight
23 Sep - 20:03:57 10° WNW 20:13:15 89° SSW 20:22:40 10° ESE daylight
23 Sep - 22:09:14 10° WNW 22:17:28 37° SW 22:25:53 10° SSE daylight
24 Sep - 13:26:53 10° SSW 13:35:16 37° SE 13:43:29 10° ENE daylight
24 Sep - 15:30:04 10° WSW 15:39:28 89° SSE 15:48:46 10° ENE daylight
24 Sep - 17:35:38 10° W 17:44:53 67° N 17:54:07 10° E daylight
24 Sep - 19:41:03 10° WNW 19:50:20 89° NNE 19:59:44 10° ESE daylight
24 Sep - 21:46:16 10° WNW 21:54:37 40° SW 22:03:08 10° SSE daylight
25 Sep - 13:04:10 10° SSW 13:12:26 35° SE 13:20:31 10° ENE daylight
25 Sep - 15:07:08 10° WSW 15:16:33 86° SSE 15:25:51 10° ENE daylight
25 Sep - 17:12:40 10° W 17:21:56 67° N 17:31:09 10° E daylight
25 Sep - 19:18:07 10° WNW 19:27:25 86° NNE 19:36:48 10° ESE daylight
25 Sep - 21:23:19 10° WNW 21:31:46 42° SW 21:40:23 10° SSE daylight
26 Sep - 12:41:29 10° SSW 12:49:35 33° SE 12:57:31 10° ENE daylight
26 Sep - 14:44:12 10° WSW 14:53:39 83° SSE 15:02:55 10° ENE daylight
26 Sep - 16:49:41 10° W 16:58:58 67° N 17:08:12 10° E daylight
26 Sep - 18:55:11 10° WNW 19:04:30 84° NNE 19:13:51 10° ESE daylight
26 Sep - 21:00:21 10° WNW 21:08:55 44° SW 21:17:38 10° SSE daylight
26 Sep - 23:10:55 10° WSW 23:11:57 10° WSW 23:13:00 10° SW daylight
27 Sep - 12:18:48 10° S 12:26:45 31° SE 12:34:30 10° ENE daylight
27 Sep - 14:21:17 10° WSW 14:30:45 81° SSE 14:40:01 10° ENE daylight
27 Sep - 16:26:43 10° W 16:36:01 68° N 16:45:14 10° ENE daylight
27 Sep - 18:32:15 10° WNW 18:41:34 82° NNE 18:50:54 10° ESE daylight
27 Sep - 20:37:24 10° WNW 20:46:04 47° SW 20:54:52 10° SSE daylight
27 Sep - 22:46:26 10° WSW 22:49:10 12° WSW 22:51:55 10° SW daylight
28 Sep - 11:56:09 10° S 12:03:54 29° SE 12:11:30 10° ENE daylight
28 Sep - 13:58:22 10° SW 14:07:50 78° SSE 14:17:05 10° ENE daylight
28 Sep - 16:03:44 10° W 16:13:03 68° N 16:22:17 10° ENE daylight
28 Sep - 18:09:19 10° WNW 18:18:37 80° NNE 18:27:57 10° ESE daylight
28 Sep - 20:14:27 10° WNW 20:23:12 50° SW 20:32:04 10° SSE daylight
28 Sep - 22:22:42 10° W 22:26:22 13° WSW 22:30:04 10° SSW daylight
29 Sep - 11:33:31 10° S 11:41:05 27° SE 11:48:27 10° ENE daylight
29 Sep - 13:35:28 10° SW 13:44:56 75° SSE 13:54:10 10° ENE daylight
29 Sep - 15:40:45 10° W 15:50:06 69° N 15:59:20 10° ENE daylight
29 Sep - 17:46:22 10° WNW 17:55:42 78° NNE 18:05:00 10° ESE daylight
29 Sep - 19:51:30 10° WNW 20:00:20 52° SW 20:09:16 10° SE daylight
29 Sep - 21:59:13 10° W 22:03:34 14° SW 22:07:58 10° SSW daylight
30 Sep - 11:10:55 10° S 11:18:14 25° SE 11:25:24 10° E visible
30 Sep - 13:12:34 10° SW 13:22:02 72° SSE 13:31:15 10° ENE daylight
30 Sep - 15:17:46 10° W 15:27:09 70° N 15:36:23 10° ENE daylight
30 Sep - 17:23:26 10° WNW 17:32:46 76° NNE 17:42:02 10° ESE daylight
30 Sep - 19:28:34 10° WNW 19:37:28 55° SW 19:46:28 10° SE daylight
30 Sep - 21:35:50 10° W 21:40:46 16° SW 21:45:45 10° SSW daylight
